DW6440 Weather Reports


Display with metric or nautical units.
time (UTC)temp
F
wind
direction
speed
MPH
gust
MPH
rain 1hr
in
rain 24hr
in
rain mn
in
humidity
%
barometer
mb
20220818220856 80 221 3.0 9.0 0.00 0.00 0.00 48 1012.5
20220818220356 80 271 3.0 8.0 0.00 0.00 0.00 50 1012.5
20220818215900 81 211 3.0 9.0 0.00 0.00 0.00 49 1012.5
20220818215356 81 287 4.0 9.0 0.00 0.00 0.00 48 1012.5
20220818214856 81 220 3.0 7.0 0.00 0.00 0.00 47 1012.5
20220818214356 81 242 3.0 7.0 0.00 0.00 0.00 48 1012.5
20220818213853 81 211 3.0 7.0 0.00 0.00 0.00 49 1012.5
20220818213353 81 284 3.0 7.0 0.00 0.00 0.00 48 1012.5
20220818213129 81 278 3.0 8.0 0.00 0.00 0.00 48 1012.5
20220818213022 81 300 4.0 8.0 0.00 0.00 0.00 48 1012.5
20220818212129 81 256 4.0 9.0 0.00 0.00 0.00 49 1012.4
20220818211852 81 204 3.0 7.0 0.00 0.00 0.00 46 1012.5
20220818210852 81 281 4.0 10.0 0.00 0.00 0.00 47 1012.4
20220818210354 81 230 4.0 10.0 0.00 0.00 0.00 48 1012.3
20220818210132 82 192 4.0 10.0 0.00 0.00 0.00 49 1012.4
20220818210021 82 271 3.0 10.0 0.00 0.00 0.00 51 1012.3
20220818205346 82 186 3.0 10.0 0.00 0.00 0.00 47 1012.4
20220818204839 82 223 3.0 8.0 0.00 0.00 0.00 46 1012.4
20220818204059 82 196 2.0 10.0 0.00 0.00 0.00 45 1012.3
20220818203954 81 189 3.0 9.0 0.00 0.00 0.00 46 1012.4
20220818203048 82 252 4.0 7.0 0.00 0.00 0.00 45 1012.5
20220818202310 81 207 3.0 8.0 0.00 0.00 0.00 47 1012.4
20220818202038 81 200 2.0 8.0 0.00 0.00 0.00 48 1012.4
20220818201528 81 260 3.0 9.0 0.00 0.00 0.00 49 1012.4
20220818200757 81 186 4.0 9.0 0.00 0.00 0.00 50 1012.5
20220818200751 81 235 3.0 9.0 0.00 0.00 0.00 46 1012.4
20220818195740 81 215 3.0 9.0 0.00 0.00 0.00 47 1012.4
20220818195233 81 229 3.0 7.0 0.00 0.00 0.00 50 1012.4
20220818194727 80 281 3.0 10.0 0.00 0.00 0.00 54 1012.4
20220818194451 80 280 4.0 10.0 0.00 0.01 0.00 48 1012.4
20220818194346 81 202 4.0 9.0 0.00 0.03 0.00 47 1012.4
20220818193629 82 288 4.0 10.0 0.00 0.10 0.00 52 1012.3
20220818193534 81 311 3.0 10.0 0.00 0.10 0.00 50 1012.4
20220818193523 81 283 3.0 10.0 0.00 0.10 0.00 52 1012.5
20220818193215 82 331 4.0 10.0 0.00 0.08 0.00 49 1012.4
20220818191135 81 209 3.0 8.0 0.00 0.10 0.00 50 1012.5
20220818190900 81 257 3.0 9.0 0.00 0.10 0.00 50 1012.6
20220818190356 82 221 3.0 9.0 0.00 0.10 0.00 52 1012.6
20220818185849 81 217 3.0 9.0 0.00 0.10 0.00 53 1012.6
20220818185347 81 284 2.0 8.0 0.00 0.10 0.00 52 1012.6
20220818184845 80 257 2.0 8.0 0.00 0.10 0.00 52 1012.6
20220818184735 80 355 3.0 10.0 0.00 0.10 0.00 53 1012.7
20220818184402 81 269 3.0 10.0 0.00 0.10 0.00 55 1012.8
20220818183046 81 297 2.0 7.0 0.00 0.10 0.00 54 1012.7
20220818182913 80 295 2.0 8.0 0.00 0.10 0.00 56 1012.9
20220818182833 80 219 2.0 8.0 0.00 0.10 0.00 52 1012.9
20220818182143 80 251 2.0 8.0 0.00 0.10 0.00 54 1012.8
20220818181022 80 309 3.0 8.0 0.00 0.10 0.00 54 1012.9
20220818180921 78 267 2.0 6.0 0.00 0.10 0.00 56 1013.0
20220818180819 80 336 2.0 6.0 0.00 0.10 0.00 55 1012.9
20220818180447 79 266 4.0 11.0 0.00 0.10 0.00 57 1013.0
20220818175238 79 211 5.0 11.0 0.00 0.10 0.00 53 1013.0
20220818174514 78 340 2.0 8.0 0.00 0.10 0.00 56 1013.0
20220818174507 79 213 3.0 10.0 0.00 0.10 0.00 54 1013.1
20220818173741 78 218 3.0 8.0 0.00 0.10 0.00 56 1013.1
20220818173009 79 262 4.0 9.0 0.00 0.10 0.00 58 1013.1
20220818172510 78 219 3.0 9.0 0.00 0.10 0.00 57 1013.2
20220818172012 78 315 3.0 9.0 0.00 0.10 0.00 59 1013.2
20220818172008 77 308 3.0 9.0 0.00 0.10 0.00 58 1013.1
20220818171007 78 297 4.0 10.0 0.00 0.10 0.00 58 1013.2
20220818170742 78 239 5.0 10.0 0.00 0.10 0.00 57 1013.2
20220818170240 79 340 4.0 10.0 0.00 0.10 0.00 57 1013.3
20220818165510 78 18 3.0 9.0 0.00 0.10 0.00 60 1013.2
20220818165013 78 252 3.0 7.0 0.00 0.10 0.00 56 1013.2
20220818164755 78 348 3.0 6.0 0.00 0.10 0.00 61 1013.2
20220818164511 78 323 3.0 7.0 0.00 0.10 0.00 60 1013.2
20220818164010 77 73 2.0 6.0 0.00 0.10 0.00 62 1013.1
20220818162959 77 266 3.0 9.0 0.00 0.10 0.00 60 1013.2
20220818162453 76 272 2.0 8.0 0.00 0.10 0.00 63 1013.3
20220818161948 76 307 2.0 6.0 0.00 0.10 0.00 61 1013.3
20220818161441 76 278 2.0 6.0 0.00 0.10 0.00 59 1013.3
20220818160941 76 309 2.0 6.0 0.00 0.10 0.00 65 1013.3
20220818160931 76 258 3.0 6.0 0.00 0.10 0.00 62 1013.3
20220818160201 76 194 2.0 5.0 0.00 0.10 0.00 64 1013.2
20220818155922 75 311 2.0 4.0 0.00 0.10 0.00 65 1013.2
20220818155144 75 317 2.0 6.0 0.00 0.10 0.00 59 1013.3
20220818154636 75 15 3.0 8.0 0.00 0.10 0.00 63 1013.3
20220818153859 75 305 3.0 8.0 0.00 0.10 0.00 67 1013.3
20220818153628 74 196 2.0 8.0 0.00 0.10 0.00 63 1013.3
20220818152848 75 304 2.0 8.0 0.00 0.10 0.00 66 1013.4
20220818152341 74 42 3.0 9.0 0.00 0.10 0.00 66 1013.4
20220818151835 74 24 4.0 9.0 0.00 0.10 0.00 64 1013.4
20220818151703 74 349 3.0 10.0 0.00 0.10 0.00 66 1013.5
20220818151632 74 355 3.0 10.0 0.00 0.10 0.00 64 1013.5
20220818150324 73 9 3.0 9.0 0.00 0.10 0.00 67 1013.6
20220818150317 74 303 3.0 9.0 0.00 0.10 0.00 70 1013.6
20220818145318 73 355 2.0 6.0 0.00 0.10 0.00 66 1013.6
20220818144825 72 345 2.0 8.0 0.00 0.10 0.00 68 1013.6
20220818144819 73 217 3.0 8.0 0.00 0.10 0.00 67 1013.6
20220818144316 72 342 3.0 8.0 0.00 0.10 0.00 68 1013.7
20220818143317 72 341 2.0 8.0 0.00 0.10 0.00 72 1013.6
20220818142820 72 346 2.0 9.0 0.00 0.10 0.00 72 1013.6
20220818142816 72 341 3.0 9.0 0.00 0.10 0.00 70 1013.6
20220818142448 71 0 3.0 7.0 0.00 0.10 0.00 71 1013.6
20220818141311 71 342 2.0 7.0 0.00 0.10 0.00 72 1013.6
20220818141045 71 315 2.0 7.0 0.00 0.10 0.00 73 1013.7
20220818140311 71 302 3.0 7.0 0.00 0.10 0.00 77 1013.7
20220818135811 70 290 2.0 5.0 0.00 0.10 0.00 78 1013.6
20220818135309 69 341 2.0 6.0 0.00 0.10 0.00 76 1013.6
20220818135043 69 339 2.0 6.0 0.00 0.10 0.00 77 1013.6
20220818134548 69 282 2.0 6.0 0.00 0.10 0.00 78 1013.6
20220818134039 69 283 2.0 6.0 0.00 0.10 0.00 78 1013.7
20220818133542 69 285 2.0 6.0 0.00 0.10 0.00 80 1013.8
20220818132830 67 348 3.0 6.0 0.00 0.10 0.00 84 1013.9
20220818132801 68 290 2.0 7.0 0.00 0.10 0.00 82 1013.9
20220818132727 68 286 3.0 7.0 0.00 0.10 0.00 83 1013.8
20220818131323 66 340 4.0 8.0 0.00 0.10 0.00 86 1014.0
20220818131243 67 348 2.0 5.0 0.00 0.10 0.00 84 1013.9
20220818130737 67 333 3.0 8.0 0.00 0.10 0.00 86 1014.0
20220818130716 66 350 3.0 8.0 0.00 0.10 0.00 87 1014.0
20220818125920 65 339 2.0 8.0 0.00 0.10 0.00 90 1014.0
20220818125238 65 355 3.0 8.0 0.00 0.10 0.00 89 1013.9
20220818124508 65 355 2.0 8.0 0.00 0.10 0.00 92 1014.0
20220818123750 63 342 1.0 4.0 0.00 0.10 0.00 94 1014.0
20220818123735 64 348 2.0 8.0 0.00 0.10 0.00 92 1014.0
20220818123238 63 342 2.0 4.0 0.00 0.10 0.00 93 1014.0
20220818122506 63 343 1.0 4.0 0.00 0.10 0.00 95 1014.0
20220818122410 62 343 1.0 3.0 0.00 0.10 0.00 96 1014.0
20220818121505 62 343 1.0 3.0 0.00 0.10 0.00 96 1013.9
20220818120739 61 343 1.0 4.0 0.00 0.10 0.00 97 1014.0
20220818120735 62 343 1.0 4.0 0.00 0.10 0.00 96 1014.0
20220818115735 61 344 1.0 4.0 0.00 0.10 0.00 97 1014.0
20220818115509 61 344 1.0 4.0 0.00 0.10 0.00 97 1014.0
20220818115410 60 344 0.0 3.0 0.00 0.10 0.00 97 1014.0
20220818114906 60 344 0.0 0.0 0.00 0.10 0.00 97 1013.9
20220818113727 60 344 0.0 4.0 0.00 0.10 0.00 97 1013.8
20220818113515 57 346 1.0 4.0 0.00 0.10 0.00 97 1013.8
20220818113228 60 344 1.0 4.0 0.00 0.10 0.00 97 1013.8
20220818112729 59 344 1.0 4.0 0.00 0.10 0.00 97 1013.7
20220818112229 59 344 1.0 4.0 0.00 0.10 0.00 97 1013.8
20220818111727 58 346 1.0 4.0 0.00 0.10 0.00 97 1013.7
20220818111401 56 346 0.0 0.0 0.00 0.10 0.00 97 1013.8
20220818110727 57 346 0.0 4.0 0.00 0.10 0.00 97 1013.8
20220818105727 56 346 0.0 0.0 0.00 0.10 0.00 97 1013.7
20220818105522 56 346 0.0 0.0 0.00 0.10 0.00 97 1013.7
20220818105227 56 346 0.0 0.0 0.00 0.10 0.00 97 1013.7
20220818105156 56 346 0.0 0.0 0.00 0.10 0.00 97 1013.6
20220818104357 56 346 0.0 0.0 0.00 0.10 0.00 97 1013.6
20220818104152 56 346 0.0 0.0 0.00 0.10 0.00 97 1013.5
20220818102722 56 346 0.0 0.0 0.00 0.10 0.00 97 1013.4
20220818102232 56 346 0.0 0.0 0.00 0.10 0.00 97 1013.4
20220818102226 56 346 0.0 0.0 0.00 0.10 0.00 97 1013.4
20220818101632 56 346 0.0 0.0 0.00 0.10 0.00 97 1013.3
20220818101529 56 346 0.0 0.0 0.00 0.10 0.00 97 1013.3
20220818100508 56 346 0.0 0.0 0.00 0.10 0.00 97 1013.3
20220818100228 56 346 0.0 0.0 0.00 0.10 0.00 97 1013.3
20220818095723 56 346 0.0 0.0 0.00 0.10 0.00 97 1013.3
20220818094723 56 346 0.0 0.0 0.00 0.10 0.00 97 1013.2
20220818094223 56 346 0.0 0.0 0.00 0.10 0.00 97 1013.3
20220818093726 56 346 0.0 0.0 0.00 0.10 0.00 97 1013.3
20220818093223 56 346 0.0 0.0 0.00 0.10 0.00 97 1013.2
20220818092952 56 346 0.0 0.0 0.00 0.10 0.00 97 1013.2
20220818092451 56 346 0.0 0.0 0.00 0.10 0.00 97 1013.2
20220818091716 56 346 0.0 0.0 0.00 0.10 0.00 97 1013.2
20220818091212 56 346 0.0 0.0 0.00 0.10 0.00 97 1013.1
20220818090702 56 346 0.0 1.0 0.00 0.10 0.00 97 1013.2
20220818090156 56 346 0.0 1.0 0.00 0.10 0.00 97 1013.2
20220818085651 56 346 0.0 0.0 0.00 0.10 0.00 97 1013.1
20220818085144 56 346 0.0 0.0 0.00 0.10 0.00 97 1013.1
20220818084930 56 346 0.0 1.0 0.00 0.10 0.00 97 1013.0
20220818084639 56 346 0.0 0.0 0.00 0.10 0.00 97 1013.1
20220818084559 56 346 0.0 0.0 0.00 0.10 0.00 97 1013.1
20220818083352 56 346 0.0 1.0 0.00 0.10 0.00 97 1012.9
20220818082845 57 346 0.0 1.0 0.00 0.10 0.00 97 1012.9
20220818082340 57 346 0.0 1.0 0.00 0.10 0.00 97 1012.8
20220818081834 57 346 0.0 0.0 0.00 0.10 0.00 97 1012.8
20220818081338 57 346 0.0 1.0 0.00 0.10 0.00 97 1012.8
20220818081238 57 346 0.0 1.0 0.00 0.10 0.00 97 1012.9
20220818081028 57 346 0.0 0.0 0.00 0.10 0.00 97 1012.8
20220818080234 57 346 0.0 0.0 0.00 0.10 0.00 97 1012.8
20220818075325 57 346 0.0 0.0 0.00 0.10 0.00 97 1012.8
20220818074553 57 346 0.0 0.0 0.00 0.10 0.00 97 1012.9
20220818074206 57 346 0.0 0.0 0.00 0.10 0.00 96 1012.8
20220818074114 57 346 0.0 1.0 0.00 0.10 0.00 96 1012.8
20220818074101 57 346 0.0 0.0 0.00 0.10 0.00 97 1012.9
20220818073755 57 346 0.0 1.0 0.00 0.10 0.00 96 1012.9
20220818073751 57 346 0.0 1.0 0.00 0.10 0.00 96 1012.9
20220818071544 57 346 0.0 1.0 0.00 0.10 0.00 96 1012.8
20220818071450 58 346 0.0 0.0 0.00 0.10 0.00 96 1012.8
20220818071111 58 346 0.0 0.0 0.00 0.10 0.00 97 1012.7
20220818070846 58 346 0.0 0.0 0.00 0.10 0.00 96 1012.8
20220818070038 58 346 0.0 0.0 0.00 0.10 0.00 96 1012.8
20220818065037 58 346 0.0 1.0 0.00 0.10 0.00 96 1012.9
20220818064808 58 346 0.0 1.0 0.00 0.10 0.00 96 1013.0
20220818064036 58 346 0.0 1.0 0.00 0.10 0.00 96 1013.0
20220818063537 58 346 0.0 2.0 0.00 0.10 0.00 96 1013.0
20220818063031 58 346 0.0 2.0 0.00 0.10 0.00 96 1012.9
20220818062524 58 346 0.0 1.0 0.00 0.10 0.00 96 1013.0
20220818062018 58 346 0.0 1.0 0.00 0.10 0.00 96 1013.1
20220818061745 58 346 0.0 1.0 0.00 0.10 0.00 96 1013.1
20220818061339 58 346 0.0 0.0 0.00 0.10 0.00 96 1013.0
20220818061306 58 346 0.0 0.0 0.00 0.10 0.00 96 1013.1
20220818055954 58 346 0.0 0.0 0.00 0.10 0.00 96 1013.1
20220818055722 58 346 0.0 1.0 0.00 0.10 0.00 96 1013.1
20220818055445 58 346 0.0 1.0 0.00 0.10 0.00 96 1013.1
20220818054436 59 346 0.0 1.0 0.00 0.10 0.00 96 1013.1
20220818053931 59 346 0.0 1.0 0.00 0.10 0.00 96 1013.1
20220818053425 59 346 0.0 1.0 0.00 0.10 0.00 96 1013.1
20220818053151 59 346 0.0 1.0 0.00 0.10 0.00 96 1013.0
20220818052644 59 346 0.0 1.0 0.00 0.10 0.00 96 1013.1
20220818052138 59 346 0.0 0.0 0.00 0.10 0.00 96 1013.0
20220818051632 59 346 0.0 1.0 0.00 0.10 0.00 96 1013.0
20220818050855 59 346 0.0 1.0 0.00 0.10 0.00 96 1013.0
20220818050352 60 346 0.0 1.0 0.00 0.10 0.00 96 1013.1
20220818045843 60 346 0.0 1.0 0.00 0.10 0.00 96 1013.0
20220818045346 60 346 0.0 0.0 0.00 0.10 0.00 96 1013.2
20220818045339 60 346 0.0 0.0 0.00 0.10 0.00 96 1013.1
20220818044556 60 346 0.0 1.0 0.00 0.10 0.00 96 1013.2
20220818044046 60 346 0.0 1.0 0.00 0.10 0.00 95 1013.3
20220818043920 60 346 0.0 1.0 0.00 0.10 0.00 95 1013.2
20220818043444 60 346 0.0 1.0 0.00 0.10 0.00 95 1013.2
20220818043233 60 346 0.0 0.0 0.00 0.10 0.00 95 1013.2
20220818042403 60 346 0.0 1.0 0.00 0.10 0.00 95 1013.2
20220818041520 60 346 0.0 1.0 0.00 0.10 0.00 95 1013.3
20220818041015 61 346 0.0 0.0 0.00 0.10 0.00 95 1013.2
20220818040236 61 346 0.0 0.0 0.00 0.10 0.00 95 1013.2
20220818040001 61 346 0.0 1.0 0.00 0.10 0.10 95 1013.2
20220818035226 61 346 0.0 0.0 0.00 0.10 0.10 95 1013.2
20220818034719 61 346 0.0 0.0 0.00 0.10 0.10 94 1013.2
20220818034214 61 346 0.0 0.0 0.00 0.10 0.10 94 1013.2
20220818033706 62 346 0.0 0.0 0.00 0.10 0.10 94 1013.3
20220818033201 62 346 0.0 0.0 0.00 0.10 0.10 94 1013.4
20220818032922 62 346 0.0 0.0 0.00 0.10 0.10 93 1013.4
20220818032758 62 346 0.0 0.0 0.00 0.10 0.10 94 1013.4
20220818031917 62 346 0.0 0.0 0.00 0.10 0.10 93 1013.5
20220818031137 63 346 0.0 0.0 0.00 0.10 0.10 93 1013.6
20220818030633 63 346 0.0 0.0 0.00 0.10 0.10 92 1013.6
20220818030126 63 346 0.0 1.0 0.00 0.10 0.10 92 1013.6
20220818025847 64 346 0.0 1.0 0.00 0.10 0.10 91 1013.7
20220818025720 64 346 0.0 1.0 0.00 0.10 0.10 92 1013.7
20220818025242 64 346 0.0 1.0 0.00 0.10 0.10 92 1013.8
20220818024101 64 346 0.0 2.0 0.00 0.10 0.10 92 1013.8
20220818023817 64 346 0.0 0.0 0.00 0.10 0.10 94 1013.9
20220818023653 64 346 0.0 2.0 0.00 0.10 0.10 93 1013.8
20220818023149 64 346 1.0 3.0 0.00 0.10 0.10 94 1013.9
20220818022646 64 346 0.0 3.0 0.00 0.10 0.10 94 1014.0
20220818022446 64 346 0.0 0.0 0.00 0.10 0.10 94 1014.0
20220818022442 64 346 0.0 0.0 0.00 0.10 0.10 94 1013.9
20220818021034 64 346 0.0 0.0 0.00 0.10 0.10 94 1013.9
20220818020812 64 346 0.0 0.0 0.00 0.10 0.10 94 1014.0
20220818015509 65 346 0.0 0.0 0.00 0.10 0.10 94 1014.0
20220818015503 65 346 0.0 0.0 0.00 0.10 0.10 94 1014.0
20220818014457 65 346 0.0 0.0 0.00 0.10 0.10 94 1014.1
20220818013957 65 346 0.0 0.0 0.00 0.10 0.10 94 1014.1
20220818013951 65 346 0.0 0.0 0.00 0.10 0.10 94 1014.1
20220818013613 65 346 0.0 0.0 0.00 0.10 0.10 93 1014.2
20220818012431 65 346 0.0 0.0 0.00 0.10 0.10 94 1014.1
20220818011926 64 346 0.0 0.0 0.00 0.10 0.10 94 1014.2
20220818011423 64 346 0.0 0.0 0.00 0.10 0.10 94 1014.2
20220818010923 64 346 0.0 0.0 0.00 0.10 0.10 94 1014.2
20220818010421 64 346 0.0 0.0 0.00 0.10 0.10 94 1014.1
20220818005920 64 346 0.0 0.0 0.00 0.10 0.10 94 1014.0
20220818005651 64 346 0.0 0.0 0.00 0.10 0.10 93 1014.0
20220818004920 64 346 0.0 0.0 0.00 0.10 0.10 93 1014.0
20220818004416 64 346 0.0 0.0 0.00 0.10 0.10 93 1014.0
20220818004148 64 346 0.0 0.0 0.00 0.10 0.10 93 1014.0
20220818003646 64 346 0.0 0.0 0.00 0.10 0.10 92 1013.9
20220818002914 64 346 0.0 0.0 0.00 0.10 0.10 92 1013.9
20220818002642 64 346 0.0 0.0 0.00 0.10 0.10 91 1013.9
20220818001908 65 346 0.0 0.0 0.00 0.10 0.10 91 1013.8
20220818001410 65 346 0.0 0.0 0.00 0.10 0.10 90 1013.8
20220818001153 66 346 0.0 0.0 0.00 0.10 0.10 88 1013.7
20220818000913 66 346 0.0 0.0 0.00 0.10 0.10 89 1013.8
20220817235911 67 346 0.0 0.0 0.00 0.10 0.10 87 1013.6
20220817235411 67 346 0.0 0.0 0.00 0.10 0.10 86 1013.6
20220817234908 68 346 0.0 2.0 0.00 0.10 0.10 84 1013.6
20220817234410 68 346 0.0 2.0 0.00 0.10 0.10 84 1013.7
20220817233909 68 346 1.0 3.0 0.00 0.10 0.10 84 1013.7
20220817233407 69 346 1.0 3.0 0.00 0.10 0.10 84 1013.7
20220817232904 69 346 1.0 3.0 0.00 0.10 0.10 84 1013.7
20220817232635 69 346 2.0 6.0 0.00 0.10 0.10 83 1013.5
20220817232137 69 346 2.0 6.0 0.00 0.10 0.10 83 1013.5
20220817232038 70 346 1.0 4.0 0.00 0.10 0.10 84 1013.4
20220817231406 69 350 3.0 8.0 0.00 0.10 0.10 83 1013.4
20220817230904 69 288 3.0 8.0 0.00 0.10 0.10 84 1013.4
20220817230404 70 340 2.0 6.0 0.00 0.10 0.10 84 1013.4
20220817225404 71 297 1.0 7.0 0.00 0.10 0.10 83 1013.3
20220817225134 71 297 1.0 7.0 0.00 0.10 0.10 83 1013.3
20220817225056 71 355 2.0 5.0 0.00 0.10 0.10 84 1013.3
20220817223910 71 0 2.0 6.0 0.00 0.10 0.10 82 1013.3
20220817223904 71 355 3.0 6.0 0.00 0.10 0.10 83 1013.3
20220817222905 71 294 1.0 7.0 0.00 0.10 0.10 82 1013.3
20220817222404 71 294 2.0 7.0 0.00 0.10 0.10 81 1013.3
20220817221905 71 355 2.0 4.0 0.00 0.10 0.10 82 1013.3
20220817221404 71 65 1.0 3.0 0.00 0.10 0.10 85 1013.5
20220817221340 70 80 0.0 2.0 0.00 0.10 0.10 86 1013.6
20220817221234 70 76 0.0 3.0 0.00 0.10 0.10 86 1013.5